Shelbyville, IN

5:30 PM EDT on May 23, 2017 (GMT -0400)
Shelbyville Municipal

Weather History for KGEZ - May, 2013

Change the Weather History Date:

Sunday, May 26, 2013

  Actual Average Record
Temperature  
Mean Temperature 63 °F 66 °F  
Max Temperature 71 °F 77 °F 93 °F (2012)
Min Temperature 55 °F 56 °F 46 °F (1999)
Degree Days  
Heating Degree Days 2 2  
Month to date heating degree days 78 126  
Since 1 July heating degree days 5071 5386  
Cooling Degree Days 0 4  
Month to date cooling degree days 98 50  
Year to date cooling degree days 114 63  
Growing Degree Days 13 (Base 50)    
Moisture  
Dew Point 46 °F    
Average Humidity 61    
Maximum Humidity 83    
Minimum Humidity 39    
Precipitation  
Precipitation T in 0.14 in 0.93 in (2001)
Month to date precipitation 1.67 4.59  
Year to date precipitation 11.40 17.09  
Sea Level Pressure  
Sea Level Pressure 30.23 in    
Wind  
Wind Speed 6 mph (SE)    
Max Wind Speed 13 mph    
Max Gust Speed 18 mph    
Visibility 10 miles    
Events Rain    
T = Trace of Precipitation, MM = Missing Value Source: NWS Daily Summary

Daily Weather History Graph

Daily Weather History Graph

Search for Another Location

Airport or City:

Trip Planner

Search our weather history database for the weather conditions in past years. The results will help you decide how hot, cold, wet, or windy it might be!

Date:

Astronomy

May. 26, 2013 Rise Set
Actual Time 6:20 AM EDT 9:00 PM EDT
Civil Twilight 5:49 AM EDT 9:31 PM EDT
Nautical Twilight 5:09 AM EDT 10:11 PM EDT
Astronomical Twilight 4:25 AM EDT 10:55 PM EDT
Moon 10:47 PM EDT (5/26) 7:49 AM EDT (5/26)
Length of Visible Light 15h 42m
Length of Day
14h 39m
Waning Gibbous, 97% of the Moon is Illuminated
May 26
Waning Gibbous
May 31
Last Quarter
Jun 8
New
Jun 16
First Quarter
Jun 23
Full

Hourly Weather History & Observations

Time (EDT) Temp. Dew Point Humidity Pressure Visibility Wind Dir Wind Speed Gust Speed Precip Events Conditions
12:53 AM 55.0 °F 48.0 °F 77% 30.27 in 10.0 mi West 5.8 mph - 0.00 in   Unknown
1:53 AM 55.0 °F 50.0 °F 83% 30.27 in 10.0 mi NW 3.5 mph - N/A   Unknown
2:53 AM 55.0 °F 50.0 °F 83% 30.25 in 10.0 mi Calm Calm - N/A   Unknown
3:53 AM 55.9 °F 50.0 °F 80% 30.23 in 10.0 mi NE 8.1 mph - N/A   Unknown
4:53 AM 55.9 °F 45.0 °F 67% 30.23 in 10.0 mi NE 3.5 mph - N/A   Overcast
5:53 AM 55.9 °F 43.0 °F 62% 30.25 in - ENE 4.6 mph - N/A   Unknown
6:53 AM 55.9 °F 42.1 °F 60% 30.25 in 10.0 mi ESE 3.5 mph - N/A   Unknown
7:53 AM 57.0 °F 42.1 °F 57% 30.27 in 10.0 mi East 4.6 mph - N/A   Unknown
8:53 AM 57.9 °F 41.0 °F 53% 30.27 in 10.0 mi ESE 5.8 mph - N/A   Overcast
9:53 AM 60.1 °F 39.0 °F 46% 30.29 in 10.0 mi ESE 6.9 mph - N/A   Overcast
10:53 AM 63.0 °F 39.0 °F 41% 30.28 in 10.0 mi SE 6.9 mph - N/A   Overcast
11:53 AM 66.0 °F 42.1 °F 42% 30.27 in 10.0 mi South 9.2 mph - N/A   Overcast
12:53 PM 66.0 °F 44.1 °F 45% 30.27 in 10.0 mi South 6.9 mph - N/A   Partly Cloudy
1:53 PM 68.0 °F 43.0 °F 40% 30.25 in 10.0 mi South 6.9 mph - N/A   Clear
2:53 PM 68.0 °F 44.1 °F 42% 30.25 in 10.0 mi Calm Calm - N/A   Scattered Clouds
3:53 PM 69.1 °F 45.0 °F 42% 30.24 in 10.0 mi SE 3.5 mph - N/A   Mostly Cloudy
4:53 PM 69.1 °F 46.9 °F 45% 30.21 in 10.0 mi SSE 9.2 mph - N/A   Overcast
5:53 PM 69.1 °F 48.9 °F 49% 30.16 in 10.0 mi ESE 11.5 mph - 0.00 in Rain Light Rain
6:53 PM 71.1 °F 48.0 °F 44% 30.17 in 10.0 mi ESE 6.9 mph - 0.00 in   Mostly Cloudy
7:53 PM 69.1 °F 48.9 °F 49% 30.16 in 10.0 mi SSE 8.1 mph - N/A   Mostly Cloudy
8:53 PM 66.9 °F 50.0 °F 54% 30.17 in 10.0 mi SSE 8.1 mph - N/A   Overcast
9:53 PM 66.9 °F 50.0 °F 54% 30.16 in 10.0 mi SE 6.9 mph - N/A   Mostly Cloudy
10:53 PM 64.0 °F 52.0 °F 65% 30.17 in 10.0 mi SE 9.2 mph - 0.00 in Rain Light Rain
11:53 PM 63.0 °F 53.1 °F 70% 30.16 in 10.0 mi ESE 8.1 mph - 0.00 in Rain Light Rain